Change the Weather History Date:

Sunday, January 6, 2013

  Actual Average Record
Temperature  
Mean Temperature 16 °F -  
Max Temperature 21 °F 19 °F 46 °F (2012)
Min Temperature 10 °F 3 °F -26 °F (1988)
Degree Days  
Heating Degree Days 50    
Moisture  
Dew Point 10 °F    
Average Humidity 77    
Maximum Humidity 92    
Minimum Humidity 63    
Precipitation  
Precipitation 0.00 in - - ()
Sea Level Pressure  
Sea Level Pressure 30.13 in    
Wind  
Wind Speed 13 mph (WSW)    
Max Wind Speed 20 mph    
Max Gust Speed 26 mph    
Visibility 10 miles    
Events      
Averages and records for this station are not official NWS values.
T = Trace of Precipitation, MM = Missing Value Source: NWS Daily Summary

Daily Weather History Graph

Daily Weather History Graph

Search for Another Location

Airport or City:

Trip Planner

Search our weather history database for the weather conditions in past years. The results will help you decide how hot, cold, wet, or windy it might be!

Date:

Astronomy

Jan. 06, 2013 Rise Set
Actual Time 7:50 AM CST 4:56 PM CST
Civil Twilight 7:18 AM CST 5:29 PM CST
Nautical Twilight 6:42 AM CST 6:05 PM CST
Astronomical Twilight 6:07 AM CST 6:39 PM CST
Moon 2:02 AM CST (1/6) 12:27 PM CST (1/6)
Length of Visible Light 10h 10m
Length of Day
9h 05m
Waning Crescent, 33% of the Moon is Illuminated
Jan 6
Waning Crescent
Jan 11
New
Jan 18
First Quarter
Jan 26
Full
Feb 3
Last Quarter

Hourly Weather History & Observations

Time (CST) Temp. Windchill Dew Point Humidity Pressure Visibility Wind Dir Wind Speed Gust Speed Precip Events Conditions
12:15 AM 12.2 °F -4.8 °F 6.8 °F 79% 30.04 in 10.0 mi NW 17.3 mph - N/A   Clear
12:35 AM 12.2 °F -5.8 °F 6.8 °F 79% 30.05 in 10.0 mi NW 19.6 mph - N/A   Clear
12:55 AM 12.2 °F -5.8 °F 6.8 °F 79% 30.06 in 10.0 mi NW 19.6 mph - N/A   Mostly Cloudy
1:15 AM 12.2 °F -4.8 °F 5.0 °F 73% 30.06 in 10.0 mi NW 17.3 mph - N/A   Partly Cloudy
1:35 AM 12.2 °F -3.7 °F 5.0 °F 73% 30.07 in 10.0 mi NW 15.0 mph - N/A   Clear
1:55 AM 12.2 °F -3.1 °F 5.0 °F 73% 30.06 in 10.0 mi NW 13.8 mph 19.6 mph N/A   Clear
2:15 AM 12.2 °F -4.8 °F 5.0 °F 73% 30.07 in 10.0 mi NW 17.3 mph 21.9 mph N/A   Clear
2:35 AM 12.2 °F -4.8 °F 5.0 °F 73% 30.08 in 10.0 mi NW 17.3 mph 25.3 mph N/A   Clear
2:55 AM 12.2 °F -4.3 °F 5.0 °F 73% 30.08 in 10.0 mi NW 16.1 mph - N/A   Clear
3:15 AM 12.2 °F -5.3 °F 5.0 °F 73% 30.09 in 10.0 mi WNW 18.4 mph - N/A   Clear
3:35 AM 12.2 °F -5.8 °F 5.0 °F 73% 30.10 in 10.0 mi WNW 19.6 mph 26.5 mph N/A   Clear
3:55 AM 12.2 °F -4.8 °F 5.0 °F 73% 30.10 in 10.0 mi WNW 17.3 mph - N/A   Clear
4:15 AM 12.2 °F -5.3 °F 5.0 °F 73% 30.11 in 10.0 mi NW 18.4 mph - N/A   Clear
4:35 AM 12.2 °F -3.7 °F 6.8 °F 79% 30.11 in 10.0 mi NW 15.0 mph - N/A   Clear
4:55 AM 10.4 °F -6.0 °F 6.8 °F 85% 30.11 in 10.0 mi NW 15.0 mph - N/A   Clear
5:15 AM 12.2 °F -4.3 °F 8.6 °F 85% 30.12 in 10.0 mi NW 16.1 mph - N/A   Mostly Cloudy
5:35 AM 12.2 °F -3.1 °F 8.6 °F 85% 30.13 in 10.0 mi NW 13.8 mph - N/A   Overcast
5:55 AM 14.0 °F -0.2 °F 8.6 °F 79% 30.14 in 10.0 mi NW 12.7 mph - N/A   Overcast
6:15 AM 14.0 °F -0.8 °F 8.6 °F 79% 30.15 in 10.0 mi NW 13.8 mph - N/A   Overcast
6:35 AM 14.0 °F 1.2 °F 8.6 °F 79% 30.15 in 10.0 mi NW 10.4 mph - N/A   Overcast
6:55 AM 12.2 °F -1.0 °F 8.6 °F 85% 30.15 in 10.0 mi WNW 10.4 mph - N/A   Overcast
7:15 AM 12.2 °F -1.0 °F 8.6 °F 85% 30.15 in 10.0 mi WNW 10.4 mph - N/A   Scattered Clouds
7:35 AM 12.2 °F -0.2 °F 8.6 °F 85% 30.15 in 10.0 mi WNW 9.2 mph - N/A   Clear
7:55 AM 10.4 °F -0.4 °F 8.6 °F 92% 30.15 in 10.0 mi WNW 6.9 mph - N/A   Clear
8:15 AM 12.2 °F 1.7 °F 8.6 °F 85% 30.17 in 10.0 mi NW 6.9 mph - N/A   Clear
8:35 AM 10.4 °F 0.8 °F 8.6 °F 92% 30.18 in 10.0 mi NW 5.8 mph - N/A   Clear
8:55 AM 12.2 °F - 8.6 °F 85% 30.19 in 10.0 mi Calm Calm - N/A   Clear
9:15 AM 12.2 °F 6.1 °F 8.6 °F 85% 30.20 in 10.0 mi WNW 3.5 mph - N/A   Partly Cloudy
9:35 AM 14.0 °F 5.1 °F 8.6 °F 79% 30.21 in 10.0 mi WNW 5.8 mph - N/A   Partly Cloudy
9:55 AM 15.8 °F 8.6 °F 8.6 °F 73% 30.22 in 10.0 mi West 4.6 mph - N/A   Clear
10:15 AM 15.8 °F 8.6 °F 8.6 °F 73% 30.22 in 10.0 mi West 4.6 mph - N/A   Clear
10:35 AM 17.6 °F - 8.6 °F 68% 30.23 in 10.0 mi Calm Calm - N/A   Clear
10:55 AM 17.6 °F 9.3 °F 8.6 °F 68% 30.23 in 10.0 mi West 5.8 mph - N/A   Clear
11:15 AM 17.6 °F 9.3 °F 8.6 °F 68% 30.23 in 10.0 mi West 5.8 mph - N/A   Clear
11:35 AM 17.6 °F 8.2 °F 10.4 °F 73% 30.23 in 10.0 mi WSW 6.9 mph - N/A   Clear
11:55 AM 17.6 °F 7.3 °F 8.6 °F 68% 30.22 in 10.0 mi West 8.1 mph - N/A   Clear
12:15 PM 19.4 °F 10.4 °F 10.4 °F 68% 30.21 in 10.0 mi WSW 6.9 mph - N/A   Clear
12:35 PM 19.4 °F 10.4 °F 10.4 °F 68% 30.20 in 10.0 mi WSW 6.9 mph - N/A   Clear
12:55 PM 19.4 °F 11.5 °F 10.4 °F 68% 30.19 in 10.0 mi SSW 5.8 mph - N/A   Clear
1:15 PM 21.2 °F 14.9 °F 10.4 °F 63% 30.18 in 10.0 mi SSW 4.6 mph - N/A   Clear
1:35 PM 21.2 °F 13.6 °F 12.2 °F 68% 30.18 in 10.0 mi SW 5.8 mph - N/A   Clear
1:55 PM 21.2 °F 12.6 °F 12.2 °F 68% 30.18 in 10.0 mi SW 6.9 mph - N/A   Clear
2:15 PM 21.2 °F 11.7 °F 12.2 °F 68% 30.18 in 10.0 mi WSW 8.1 mph - N/A   Clear
2:35 PM 21.2 °F 13.6 °F 12.2 °F 68% 30.17 in 10.0 mi SSW 5.8 mph - N/A   Clear
2:55 PM 21.2 °F 11.7 °F 12.2 °F 68% 30.17 in 10.0 mi South 8.1 mph - N/A   Clear
3:15 PM 21.2 °F 11.7 °F 14.0 °F 74% 30.18 in 10.0 mi SSW 8.1 mph - N/A   Clear
3:35 PM 21.2 °F 11.7 °F 14.0 °F 74% 30.17 in 10.0 mi South 8.1 mph - N/A   Clear
3:55 PM 21.2 °F 12.6 °F 14.0 °F 74% 30.17 in 10.0 mi South 6.9 mph - N/A   Clear
4:15 PM 19.4 °F 9.5 °F 12.2 °F 74% 30.17 in 10.0 mi South 8.1 mph - N/A   Clear
4:35 PM 19.4 °F 9.5 °F 12.2 °F 74% 30.16 in 10.0 mi South 8.1 mph - N/A   Clear
4:55 PM 17.6 °F 7.3 °F 10.4 °F 73% 30.15 in 10.0 mi South 8.1 mph - N/A   Clear
5:15 PM 15.8 °F 6.1 °F 10.4 °F 79% 30.15 in 10.0 mi South 6.9 mph - N/A   Clear
5:35 PM 17.6 °F 6.4 °F 14.0 °F 86% 30.15 in 10.0 mi South 9.2 mph - N/A   Clear
5:55 PM 15.8 °F 5.1 °F 8.6 °F 73% 30.15 in 10.0 mi South 8.1 mph - N/A   Clear
6:15 PM 14.0 °F 2.9 °F 8.6 °F 79% 30.14 in 10.0 mi South 8.1 mph - N/A   Clear
6:35 PM 14.0 °F 1.2 °F 10.4 °F 86% 30.14 in 10.0 mi South 10.4 mph - N/A   Clear
6:55 PM 15.8 °F 2.7 °F 10.4 °F 79% 30.14 in 10.0 mi South 11.5 mph - N/A   Clear
7:15 PM 15.8 °F 2.7 °F 12.2 °F 86% 30.12 in 10.0 mi South 11.5 mph - N/A   Clear
7:35 PM 17.6 °F 3.7 °F 14.0 °F 86% 30.12 in 10.0 mi South 13.8 mph - N/A   Clear
7:55 PM 15.8 °F 2.7 °F 10.4 °F 79% 30.11 in 10.0 mi South 11.5 mph - N/A   Clear
8:15 PM 15.8 °F 2.7 °F 12.2 °F 86% 30.10 in 10.0 mi South 11.5 mph - N/A   Clear
8:35 PM 15.8 °F 1.4 °F 12.2 °F 86% 30.09 in 10.0 mi South 13.8 mph - N/A   Clear
8:55 PM 15.8 °F 0.9 °F 12.2 °F 86% 30.08 in 10.0 mi South 15.0 mph - N/A   Clear
9:15 PM 15.8 °F 2.1 °F 12.2 °F 86% 30.07 in 10.0 mi South 12.7 mph - N/A   Clear
9:55 PM 17.6 °F 1.7 °F 12.2 °F 79% 30.05 in 10.0 mi South 18.4 mph - N/A   Clear
10:15 PM 17.6 °F 2.2 °F 12.2 °F 79% 30.05 in 10.0 mi South 17.3 mph - N/A   Clear
10:35 PM 17.6 °F 1.7 °F 12.2 °F 79% 30.04 in 10.0 mi South 18.4 mph - N/A   Clear
10:55 PM 17.6 °F 1.7 °F 14.0 °F 86% 30.03 in 10.0 mi South 18.4 mph - N/A   Clear
11:35 PM 19.4 °F 4.1 °F 14.0 °F 80% 30.03 in 10.0 mi South 18.4 mph - N/A   Clear
11:55 PM 17.6 °F 1.7 °F 14.0 °F 86% 30.00 in 10.0 mi South 18.4 mph - N/A   Clear